Meath Environmental Platform

Observations for Trim Patrick St

Time AQI Temp °C Hum % Pres Pa CO μg/m³ H₂S μg/m³ NO μg/m³ NO₂ μg/m³ O₃ μg/m³ SO₂ μg/m³ PM1 μg/m³ PM2.5 μg/m³ PM10 μg/m³
Sunday 2 August 2026
19:40 3 19.2 60 74,137 0.01 13.66 1.19 44.23 34.5 2.98 3.71 7.98 8.78
19:38 3 19.2 60 74,129 0.03 16.18 1.17 59.64 26.4 3.61 2.86 7.23 7.96
19:37 3 19.2 60 74,088 0.03 16.03 1.2 53.71 25.63 3.13 2.86 7.98 8.78
19:36 3 19.2 60 74,035 0.02 15.37 1.2 49.74 35.19 3.56 4.57 7.97 8.77
19:35 3 19.2 60 74,000 0 16.18 1.21 49.76 33.59 3.88 4.57 8.72 9.6
19:34 3 19.2 60 73,958 0 15.08 1.19 46.21 37.48 3.32 2.86 7.25 7.98
19:33 3 19.2 60 73,944 0.01 14.37 1.18 40.68 35.39 3.89 4.57 8.75 9.63
19:32 3 19.2 60 73,929 0 15 1.15 44.27 31.47 3.3 2.86 7.27 7.99
19:31 3 19.2 60 73,905 0 17.18 1.17 50.2 34.83 3.78 2.86 8 8.79
19:30 3 19.2 60 73,872 0 15.71 1.19 53.4 38.68 3.32 2.86 8.01 8.81
19:29 3 19.2 60 73,862 0 13.5 1.19 40.34 36.8 2.71 2.86 8.03 8.83
19:28 3 19.2 60 73,893 0 15.4 1.19 44.69 40.41 3.43 2.86 7.27 7.99
19:27 3 19.2 60 73,933 0 16.34 1.09 45.48 38.54 3.94 4.57 8 8.8
19:26 3 19.2 60 73,921 0 16.13 1.11 49.47 26.48 3.59 4.57 8.75 9.63
19:25 3 19.2 60 73,899 0 17.68 1.04 50.22 43.14 3.53 4.57 9.46 10.4
19:23 3 19.2 60 73,833 0 18.31 1.05 53.05 40.29 4.71 2 6.52 7.17
19:22 3 19.2 60 73,781 0 17.39 1.08 47.13 31.96 4.07 4.57 8.76 9.63
19:17 3 19.2 60 73,573 0 20.76 1.19 52.7 39.42 4.66 2.86 8.01 8.81
19:16 3 19.2 60 73,477 0 19.91 1.17 55.91 39.55 4.12 2.86 6.54 7.2
19:15 3 19.2 60 73,379 0 19.73 1.16 49.96 52.98 4.21 4.57 9.51 10.46